Theta_e
324 335 337 325 310 308 304 306 311 311 312 317 320 317 317 322 320 312 332 335 336 332 340 345 347 349 348 348 348 347 346 346 343 339 338 337 337 337 338 339 341 339 337 338 340 339 338 338 337
320 331 328 319 306 301 302 310 309 312 316 318 319 317 315 318 328 328 328 335 331 333 339 344 345 348 348 348 347 346 346 345 342 338 338 337 336 336 337 337 337 337 335 336 338 340 341 338 336
320 328 318 311 306 301 303 308 310 315 317 317 316 320 320 322 329 329 334 332 328 336 338 343 345 348 348 348 347 347 346 345 343 339 336 337 336 336 336 335 337 337 335 334 337 337 337 336 335
317 321 317 306 303 308 309 308 312 316 317 319 318 315 325 332 330 334 335 327 328 336 340 342 346 348 348 348 346 345 345 345 344 339 336 336 336 335 334 335 335 336 335 334 333 335 334 333 332
317 317 307 302 302 307 310 310 314 314 314 315 316 315 321 330 336 335 330 325 331 337 341 343 344 346 347 347 346 345 345 343 340 339 339 337 336 336 336 336 336 335 336 333 331 334 333 331 330
308 314 303 300 303 307 310 311 310 314 315 315 315 317 322 332 334 333 328 326 334 340 341 343 338 341 343 345 346 345 345 342 340 336 337 335 337 337 336 335 334 332 331 332 333 332 331 330 328
306 306 303 303 303 305 309 312 308 312 312 312 316 312 324 328 334 334 328 329 333 339 339 341 341 340 337 340 341 342 342 339 334 338 338 334 332 337 338 335 334 331 331 331 330 329 329 329 328
309 307 302 305 303 303 309 312 312 312 312 316 319 307 318 328 335 334 329 330 332 335 337 337 339 340 340 338 334 335 336 334 336 335 334 331 329 330 332 331 334 333 333 332 330 329 329 329 328
311 301 300 304 306 306 311 309 312 316 312 312 316 317 324 334 334 331 327 326 330 333 334 335 336 337 337 338 333 330 332 332 331 331 328 326 327 327 325 327 330 331 334 333 332 331 331 330 329
304 300 302 309 310 310 310 309 311 309 309 309 314 321 333 332 331 329 326 324 326 329 332 334 334 334 333 335 332 332 334 331 330 330 328 329 327 327 327 324 326 328 329 329 331 333 330 326 322
304 300 307 309 310 312 312 311 311 309 306 309 311 320 329 328 329 329 328 326 326 330 331 334 334 334 332 331 331 329 331 329 328 328 328 328 327 324 325 323 322 323 322 324 327 327 326 323 322
300 304 305 306 306 308 308 314 309 309 309 314 315 323 328 325 327 328 327 329 327 329 331 332 334 333 332 334 332 331 331 330 328 328 328 326 325 325 323 323 324 322 323 323 323 323 324 323 323
302 302 305 308 306 304 308 309 309 309 311 315 318 324 327 325 326 329 330 330 331 330 332 331 333 332 333 332 333 332 331 332 332 330 331 329 326 325 325 323 323 323 324 323 322 322 322 322 323
310 308 309 309 306 305 304 305 308 310 313 314 321 321 325 325 328 329 330 330 330 331 332 333 334 335 333 332 331 331 331 331 331 331 331 331 329 327 326 325 324 323 324 324 323 322 322 322 323
304 300 302 306 306 304 304 300 302 312 313 312 313 320 323 325 328 328 330 331 331 332 334 333 332 335 333 332 332 331 332 332 330 330 331 330 330 328 327 325 325 325 325 325 324 323 323 323 324
302 299 296 304 306 306 302 294 304 310 311 310 312 314 319 323 326 328 330 331 332 332 333 333 334 333 334 333 334 333 332 330 330 330 331 331 331 330 327 326 326 326 326 325 324 323 323 324 325
298 292 295 299 306 305 303 294 303 307 309 310 310 312 316 319 323 326 328 329 332 333 333 333 333 334 334 334 334 334 334 334 333 332 330 331 331 330 328 327 327 328 327 326 325 325 325 324 322
288 292 295 296 302 304 301 297 302 304 304 308 309 311 312 316 320 325 327 329 330 332 333 332 333 333 333 335 334 334 333 333 334 332 332 332 332 331 329 328 328 329 328 327 327 322 322 321 321
293 292 292 299 304 302 300 301 302 304 301 299 300 305 311 314 319 324 326 328 329 330 331 332 332 333 333 334 332 331 330 332 331 332 333 332 332 331 330 329 329 330 328 327 324 322 321 319 323
290 289 290 295 299 302 300 298 301 303 304 302 301 301 303 310 315 320 323 325 327 328 330 331 333 334 335 335 334 333 333 333 333 333 333 333 332 332 331 330 329 329 329 328 325 323 319 320 322
290 288 289 290 292 292 290 290 296 301 304 305 303 303 303 303 309 312 320 322 325 325 327 330 331 333 334 334 335 333 333 332 330 332 332 334 334 333 333 332 331 330 330 329 328 325 322 318 321
286 292 292 291 289 284 291 285 292 297 300 304 305 301 303 303 305 306 310 318 321 323 327 328 330 331 332 334 332 331 330 328 330 332 333 333 334 334 334 333 331 330 330 328 327 328 325 323 318
287 293 291 292 288 286 286 283 287 295 295 298 303 299 300 302 303 304 304 306 307 313 316 317 320 327 329 330 333 331 330 330 331 331 331 332 334 335 334 334 332 331 330 328 327 327 326 326 323
293 289 289 290 287 279 284 284 285 290 294 295 301 298 297 295 296 297 298 299 299 301 304 307 308 308 310 317 328 329 329 330 328 328 328 331 333 334 333 334 333 332 331 329 328 328 327 326 325
289 285 276 277 278 276 286 284 287 294 292 292 293 293 295 297 298 298 298 298 298 299 300 301 301 302 305 307 311 321 327 328 328 328 327 327 329 328 332 332 331 331 331 330 328 327 326 327 326
286 285 278 270 274 276 284 280 284 295 297 294 294 294 296 298 299 300 300 300 301 302 302 303 303 303 304 303 305 309 314 323 326 326 327 327 328 329 328 328 331 330 328 329 329 327 326 326 326
286 283 288 280 277 277 279 284 288 291 291 292 293 296 296 298 299 300 301 300 301 301 302 301 301 303 303 304 305 306 311 314 314 317 320 323 326 326 328 327 325 324 325 325 324 324 324 323 322
289 290 282 280 268 268 277 278 280 285 287 291 293 294 296 297 298 299 299 300 301 301 302 301 301 301 301 301 302 303 304 306 309 314 315 317 319 319 320 322 324 324 324 323 320 316 315 316 313
286 284 285 283 279 274 273 276 285 287 289 291 292 294 295 296 296 297 299 300 300 300 300 300 300 299 299 299 299 300 300 301 303 304 306 308 311 312 313 314 317 318 317 317 314 311 309 309 307
290 286 286 279 276 278 279 276 288 291 292 292 292 293 294 296 296 297 297 298 298 298 298 298 298 297 297 297 298 298 298 299 300 301 302 302 303 305 305 308 308 309 309 308 306 306 305 305 303
Wind_Speed
16 7 8 2 3 5 9 9 4 6 3 6 7 7 9 10 6 6 8 9 20 16 14 12 14 15 15 14 14 15 15 14 15 12 12 11 11 11 12 13 11 12 14 15 15 16 14 15 15
7 3 3 4 5 8 8 9 3 5 6 3 10 2 2 6 7 11 7 15 17 16 14 13 12 14 15 14 14 14 14 15 16 12 12 11 12 11 11 12 12 12 13 14 13 14 16 15 14
6 6 3 4 5 10 8 6 8 9 10 5 4 4 5 5 9 13 11 16 16 15 13 12 12 14 15 13 14 14 14 15 16 13 11 11 11 11 11 11 11 12 12 12 12 13 14 13 12
4 3 5 5 12 10 11 4 8 9 5 6 6 7 6 5 10 9 14 15 14 15 14 14 12 14 14 12 12 13 13 13 13 12 11 12 12 10 11 10 9 10 12 11 10 11 11 11 10
3 4 6 7 14 16 5 4 7 9 6 4 2 7 6 3 14 15 14 13 15 13 15 15 14 13 13 13 13 12 12 12 12 11 11 10 10 11 10 10 9 9 11 9 8 8 8 8 8
4 3 6 8 13 13 5 5 2 9 10 8 4 5 5 9 13 12 13 11 12 17 15 13 12 12 13 12 12 11 11 12 11 11 10 11 9 6 12 12 9 8 7 7 6 6 6 6 5
4 6 9 11 12 9 6 7 4 7 7 6 2 5 7 9 12 12 12 10 9 16 14 12 12 11 10 11 11 11 11 12 11 10 12 10 9 8 10 9 9 8 7 6 5 5 4 4 3
3 4 13 10 10 11 6 6 1 5 6 4 6 0 7 11 13 10 11 10 10 12 13 13 11 10 8 6 9 8 7 10 9 10 12 8 10 8 6 5 7 8 10 7 6 4 4 3 3
4 3 6 12 11 8 6 5 2 7 7 3 4 7 4 18 8 10 9 9 9 10 11 12 12 11 10 9 7 7 8 8 10 8 8 9 5 6 7 6 9 8 8 8 7 6 5 5 6
4 4 9 10 10 7 5 5 8 2 3 4 7 7 18 11 9 10 11 12 10 10 11 11 11 10 10 9 8 6 6 5 5 6 6 4 6 6 9 8 9 6 8 7 7 7 6 6 4
5 5 9 12 11 12 11 10 4 7 6 7 11 12 15 12 9 8 11 10 9 10 6 9 11 10 10 8 7 3 4 4 4 7 6 5 4 4 4 4 3 3 5 3 5 5 4 6 5
5 9 11 8 13 6 10 12 9 7 7 3 13 18 16 15 13 11 6 12 10 10 8 8 8 7 8 7 7 5 5 4 4 5 8 5 3 4 4 3 5 5 4 6 5 4 6 6 2
3 7 8 7 13 13 7 9 10 9 3 4 3 18 17 15 16 14 9 7 9 12 10 8 7 7 6 6 6 7 7 6 6 6 7 5 4 4 4 5 4 5 5 5 4 4 3 4 5
7 12 11 9 10 16 8 10 8 6 7 5 11 10 12 15 16 13 15 14 11 8 10 8 7 9 8 5 6 4 5 6 5 6 7 7 5 5 5 4 4 4 4 4 4 4 4 4 4
4 4 7 12 8 10 10 9 9 8 9 6 6 9 10 13 14 15 15 14 12 9 11 12 8 7 8 8 5 4 4 5 5 4 7 9 7 6 6 5 5 5 4 5 4 3 2 1 2
8 2 10 9 13 8 6 10 8 10 9 6 10 8 9 11 15 13 12 11 10 11 10 11 10 8 10 9 7 5 4 4 5 5 5 7 7 7 6 5 5 5 4 4 3 4 4 4 4
10 9 12 11 18 12 9 5 9 12 9 9 8 10 9 9 11 11 11 10 13 14 13 14 12 10 7 10 9 8 8 6 6 5 5 8 8 7 5 5 5 6 4 4 4 4 3 3 4
8 10 8 16 11 17 17 10 13 14 9 8 8 8 9 10 10 11 11 11 9 12 12 11 12 13 12 6 7 7 6 8 6 5 6 8 8 8 6 5 6 6 4 4 4 4 4 4 4
8 12 15 11 13 14 19 15 13 14 8 5 6 9 7 9 10 10 10 10 11 10 12 13 14 14 11 10 8 6 8 7 4 5 7 8 8 10 9 6 6 6 6 6 5 4 5 4 4
18 15 10 5 5 13 10 15 12 13 20 6 8 9 9 4 7 9 10 9 9 9 11 11 13 15 13 9 6 6 7 7 6 5 6 7 8 8 10 9 7 8 6 8 7 6 3 4 5
18 19 9 7 5 4 3 9 12 11 18 19 11 7 7 6 5 2 8 8 8 8 8 7 8 10 11 10 6 4 3 3 4 6 6 9 8 8 9 10 9 9 7 8 9 7 8 4 4
20 12 7 10 8 4 3 7 11 16 17 20 20 8 7 8 7 4 2 6 7 5 7 8 8 8 8 10 7 8 9 8 8 8 8 5 8 10 11 10 11 10 8 9 8 7 7 6 5
9 7 12 7 6 5 6 3 5 7 12 17 20 9 8 8 7 4 4 0 5 4 2 2 1 4 6 7 10 8 8 8 6 4 6 8 7 11 12 12 11 11 8 9 10 8 9 7 6
4 5 8 6 5 5 10 7 4 7 13 7 13 9 6 9 8 8 7 7 7 8 7 5 5 5 6 5 6 8 9 8 5 6 7 7 8 7 11 11 12 11 10 10 10 10 10 8 7
12 11 3 4 6 8 18 9 10 5 6 10 9 9 9 7 9 8 10 9 9 9 8 7 7 7 8 8 7 6 6 7 8 7 5 5 5 4 10 11 11 10 11 10 9 10 12 10 9
20 17 6 7 8 4 14 10 8 21 13 10 9 8 10 9 7 8 7 6 7 7 7 7 7 6 7 7 8 6 6 4 4 6 4 4 4 5 7 8 9 9 9 8 9 7 8 10 9
18 20 10 4 1 5 7 6 2 7 8 10 12 11 9 8 7 7 6 6 6 6 6 6 6 6 7 6 5 7 6 5 4 6 5 4 4 3 4 5 6 5 4 5 5 7 10 9 9
19 19 15 1 5 3 7 5 5 9 11 13 13 12 9 8 7 6 6 6 5 5 5 6 5 6 5 6 5 4 6 6 5 5 6 5 5 3 2 2 5 6 8 8 7 5 5 7 4
13 15 10 5 4 5 5 4 4 10 15 16 10 8 7 7 8 6 6 4 6 6 5 5 6 6 6 5 5 5 5 5 5 4 5 5 5 5 5 4 5 6 6 6 6 5 4 5 4
18 15 25 10 6 2 3 2 11 17 17 14 9 7 7 8 7 6 7 7 7 6 6 6 6 6 5 5 5 5 5 5 4 4 5 6 6 5 5 6 4 4 2 1 3 4 4 6 6
Wind_Direction
308 206 245 237 240 229 242 253 316 93 79 50 101 27 53 46 19 125 148 127 121 131 140 148 146 146 146 144 138 140 137 128 116 113 110 104 105 102 107 104 95 97 92 86 77 92 89 85 73
307 270 273 273 244 252 254 168 142 131 105 102 67 338 284 91 77 127 107 127 123 134 142 141 143 140 144 145 147 143 140 127 113 118 116 117 112 111 108 111 110 102 93 91 78 76 89 80 73
243 268 265 219 227 265 304 112 156 109 105 141 125 39 6 80 109 142 128 131 130 132 152 135 140 140 144 143 147 148 142 134 130 124 120 120 121 115 114 115 111 107 95 93 84 69 68 75 73
310 189 254 258 265 219 244 68 123 111 125 170 154 121 74 41 146 118 140 133 134 144 132 134 138 135 134 135 141 140 142 128 118 127 130 130 114 106 121 121 114 93 100 92 92 80 78 77 73
217 254 246 234 257 274 75 5 115 129 152 180 198 141 90 67 99 132 137 137 137 147 129 140 141 138 136 134 136 135 130 123 123 138 137 138 129 133 110 114 114 103 97 106 98 86 81 78 73
283 223 252 237 257 251 84 93 276 154 173 179 191 122 99 122 126 147 142 146 155 123 136 141 142 143 145 146 144 142 146 144 145 151 149 141 140 156 136 131 115 128 114 100 107 102 93 86 77
244 283 249 257 265 269 137 126 227 184 176 164 134 233 122 146 142 150 149 147 145 129 139 147 156 153 148 147 150 155 162 142 158 149 150 147 155 125 137 146 142 138 134 130 127 124 121 112 96
311 274 268 268 272 289 119 134 229 233 202 94 143 163 164 160 144 152 152 147 140 135 146 152 154 151 151 150 150 147 161 161 167 162 144 143 167 148 141 157 155 159 152 153 160 164 170 169 181
304 275 239 248 259 275 89 148 70 343 110 101 112 62 116 123 141 157 153 148 141 149 156 158 154 162 163 157 158 148 144 133 135 135 139 146 165 168 167 180 168 177 168 173 179 196 205 218 230
214 231 248 265 269 310 329 179 147 136 212 169 123 88 109 120 155 173 166 163 152 166 163 162 158 167 164 165 144 160 156 156 161 154 164 180 199 176 176 155 152 165 194 197 217 202 214 234 241
217 234 268 275 30 7 339 324 256 170 219 182 178 144 137 138 162 202 172 168 165 167 171 161 163 168 161 153 156 163 158 171 175 173 170 211 214 149 141 140 160 168 198 200 207 213 225 235 241
268 248 274 330 347 9 325 325 297 176 246 264 172 151 147 153 171 190 209 169 167 170 175 170 161 164 160 137 164 163 159 177 175 175 172 190 180 156 172 174 183 189 185 213 199 207 213 224 221
222 249 259 320 336 310 303 297 283 286 198 327 97 147 154 160 176 181 193 225 176 172 174 179 166 164 162 164 168 173 177 181 183 179 181 171 179 181 186 198 180 180 182 195 223 210 222 217 239
169 240 268 305 315 304 275 275 269 275 265 131 132 151 157 171 181 174 183 205 192 170 180 168 181 172 166 186 183 179 168 173 175 170 178 193 179 179 186 196 195 196 192 193 201 210 210 221 222
147 188 298 257 254 282 310 271 250 242 295 202 189 165 174 177 183 185 190 201 172 178 187 186 192 189 177 177 194 192 183 159 180 185 173 184 194 186 181 188 191 197 200 203 204 223 236 259 271
194 201 226 214 230 256 289 270 268 219 241 251 175 204 190 185 179 186 190 188 163 171 206 189 194 210 191 180 193 199 182 189 179 186 182 183 188 199 189 183 189 191 192 184 188 199 214 209 223
204 214 223 227 216 218 234 280 255 265 228 204 220 205 190 187 180 177 178 187 169 181 196 180 183 195 223 200 200 202 209 191 197 189 187 189 191 192 191 189 197 188 187 186 188 223 188 205 239
165 221 219 214 196 206 231 248 281 289 293 191 242 235 201 183 189 172 176 180 176 178 186 170 178 190 212 230 199 200 194 216 208 202 197 191 191 195 191 196 194 195 201 200 190 173 217 204 211
244 210 212 198 216 188 220 240 251 293 297 287 277 276 233 193 190 171 170 170 176 178 182 185 177 184 191 212 198 200 199 210 213 213 208 195 189 190 195 198 195 194 196 193 203 184 199 225 219
242 254 224 173 43 177 208 242 258 270 281 246 240 257 286 249 188 170 164 170 173 178 184 189 185 185 194 200 197 195 207 212 209 210 215 201 196 189 194 196 200 203 192 196 201 184 180 222 186
228 233 237 175 122 23 359 254 222 237 254 274 279 263 300 308 267 256 144 166 164 191 184 192 191 188 194 191 186 171 169 212 227 237 211 212 193 194 197 196 200 211 195 200 210 195 191 201 209
232 222 246 144 137 178 112 264 220 228 224 238 264 227 238 264 280 273 197 179 173 195 186 190 198 201 195 191 193 188 195 206 221 219 230 214 202 202 200 202 197 207 209 213 208 201 195 197 213
247 195 219 149 137 123 170 222 235 263 224 222 226 228 223 227 247 250 245 176 69 60 194 99 46 227 217 199 198 205 199 213 219 204 197 217 223 213 209 207 203 205 205 204 204 205 197 203 208
220 272 179 164 98 252 190 184 207 196 215 216 212 161 94 50 34 34 47 53 26 40 29 11 355 322 317 307 234 205 215 216 208 221 214 211 209 208 214 213 209 209 207 207 206 212 215 204 207
199 192 134 165 186 229 171 186 236 250 72 90 77 70 68 64 61 36 29 24 26 31 20 11 11 332 323 313 297 287 241 228 228 227 231 233 197 184 208 215 213 213 212 208 198 208 221 219 211
202 199 165 172 192 160 152 219 246 227 256 98 91 90 76 66 55 68 51 38 31 29 31 21 14 354 354 348 326 290 306 272 241 240 248 239 209 202 195 210 211 211 212 197 204 210 224 223 223
194 214 213 131 79 118 188 239 210 145 117 100 100 89 86 86 79 70 63 60 56 45 42 35 23 17 17 360 355 355 359 17 9 353 354 350 343 332 214 191 189 204 217 220 203 208 214 220 223
192 199 213 263 134 199 192 193 208 164 136 120 113 110 105 101 90 87 78 72 66 59 43 46 40 42 28 17 16 4 3 360 350 328 320 315 316 334 302 214 210 201 210 210 213 216 224 198 195
196 200 205 183 192 162 132 230 304 148 137 123 110 106 113 99 100 94 91 96 90 75 60 55 44 45 29 19 6 15 9 352 346 344 331 331 326 316 294 267 246 230 218 197 187 201 193 211 190
224 209 195 187 230 232 127 345 337 110 113 109 115 120 112 106 98 83 73 60 51 49 42 51 39 39 21 2 358 3 349 344 343 340 349 357 339 340 345 326 323 319 311 199 198 209 204 198 189